FW6081 Weather Reports


time (UTC)temp
C
wind
direction
speed
KPH
gust
KPH
rain 1hr
cm
rain 24hr
cm
rain mn
cm
humidity
%
barometer
mb
20260509043540 21 197 0.0 8.0 0.00 1.93 1.93 65 1010.0
20260509043100 21 198 0.0 8.0 0.00 1.93 1.93 65 1009.6
20260509042540 21 199 1.6 12.9 0.00 1.93 1.93 65 1009.8
20260509042042 21 201 1.6 12.9 0.00 1.93 1.93 65 1009.9
20260509041554 21 201 3.2 9.7 0.00 1.93 1.93 64 1009.7
20260509041040 21 204 1.6 17.7 0.00 1.93 1.93 64 1009.6
20260509040539 21 213 4.8 17.7 0.00 1.93 1.93 64 1009.2
20260509040039 21 185 3.2 16.1 0.00 1.93 1.93 64 1009.1
20260509035541 21 191 4.8 20.9 0.00 1.93 1.93 65 1009.5
20260509035039 21 195 4.8 20.9 0.00 1.93 1.93 65 1009.0
20260509034555 21 185 1.6 14.5 0.00 1.93 1.93 65 1009.1
20260509034038 21 175 0.0 4.8 0.00 1.93 1.93 65 1009.4
20260509033539 21 175 0.0 4.8 0.00 1.93 1.93 65 1010.2
20260509033039 21 175 0.0 4.8 0.00 1.93 1.93 65 1010.7
20260509032539 21 175 0.0 0.0 0.00 1.93 1.93 64 1010.9
20260509032038 21 175 0.0 0.0 0.00 1.93 1.93 65 1010.7
20260509031538 21 175 0.0 0.0 0.00 1.93 1.93 64 1010.5
20260509031038 21 175 0.0 0.0 0.00 1.93 1.93 64 1010.2
20260509030538 21 175 0.0 0.0 0.00 1.93 1.93 64 1010.3
20260509030038 21 175 0.0 0.0 0.00 1.93 1.93 64 1010.3
20260509025537 21 175 0.0 0.0 0.00 1.93 1.93 64 1010.2
20260509025038 21 175 0.0 0.0 0.00 1.93 1.93 64 1010.3
20260509024537 21 175 0.0 1.6 0.00 1.93 1.93 64 1010.1
20260509024037 22 175 0.0 3.2 0.00 1.93 1.93 64 1010.0
20260509023537 22 175 0.0 3.2 0.00 1.93 1.93 64 1009.9
20260509023037 22 175 0.0 3.2 0.00 1.93 1.93 64 1009.7
20260509022536 22 175 0.0 3.2 0.00 1.93 1.93 63 1009.4
20260509022036 22 175 0.0 9.7 0.00 1.93 1.93 63 1009.2
20260509021536 22 175 0.0 9.7 0.00 1.93 1.93 63 1008.8
20260509021039 22 170 0.0 9.7 0.00 1.93 1.93 63 1008.7
20260509020539 22 170 1.6 9.7 0.00 1.93 1.93 63 1008.6
20260509020042 22 180 0.0 6.4 0.00 1.93 1.93 63 1008.6
20260509015536 22 175 0.0 6.4 0.00 1.93 1.93 63 1008.7
20260509015036 22 175 0.0 8.0 0.00 1.93 1.93 62 1008.6
20260509014536 22 175 0.0 8.0 0.00 1.93 1.93 62 1008.5
20260509014035 22 175 0.0 9.7 0.00 1.93 1.93 62 1008.3
20260509013535 22 175 0.0 9.7 0.00 1.93 1.93 62 1008.4
20260509013046 22 175 0.0 8.0 0.00 1.93 1.93 62 1008.4
20260509012535 22 175 0.0 8.0 0.00 1.93 1.93 62 1008.4
20260509012034 22 180 0.0 6.4 0.00 1.93 1.93 62 1008.4
20260509011536 22 180 0.0 9.7 0.00 1.93 1.93 62 1008.5
20260509011035 22 180 1.6 12.9 0.00 1.93 1.93 62 1008.5
20260509010536 22 180 1.6 12.9 0.00 1.93 1.93 62 1008.5
20260509010047 23 175 0.0 4.8 0.00 1.93 1.93 62 1008.5
20260509005534 23 175 0.0 4.8 0.00 1.93 1.93 62 1008.4
20260509005034 23 175 1.6 4.8 0.00 1.93 1.93 61 1008.4
20260509004534 23 175 0.0 6.4 0.00 1.93 1.93 61 1008.3
20260509004033 23 175 1.6 6.4 0.00 1.93 1.93 61 1008.1
20260509003533 23 175 0.0 4.8 0.00 1.93 1.93 61 1008.0
20260509003033 23 175 1.6 4.8 0.00 1.93 1.93 61 1008.0
20260509002532 23 175 0.0 12.9 0.00 1.93 1.93 61 1008.0
20260509002032 23 175 0.0 12.9 0.00 1.93 1.93 61 1008.0
20260509001533 23 185 0.0 8.0 0.00 1.93 1.93 61 1007.9
20260509001034 23 185 1.6 9.7 0.00 1.93 1.93 60 1008.0
20260509000531 23 185 3.2 14.5 0.00 1.93 1.93 60 1008.0
20260509000031 23 185 3.2 14.5 0.00 1.93 1.93 60 1008.1
20260508235531 24 193 3.2 14.5 0.00 1.93 1.93 60 1008.1
20260508235031 24 180 3.2 12.9 0.00 1.93 1.93 59 1008.0
20260508234530 24 193 1.6 9.7 0.00 1.93 1.93 59 1008.1
20260508234030 25 185 0.0 14.5 0.00 1.93 1.93 58 1008.2
20260508233532 25 185 4.8 14.5 0.00 1.93 1.93 59 1008.2
20260508233030 25 191 3.2 14.5 0.00 1.93 1.93 58 1008.3
20260508232530 25 185 1.6 14.5 0.00 1.93 1.93 59 1008.3
20260508232029 25 185 1.6 14.5 0.00 1.93 1.93 59 1008.3
20260508231529 25 185 3.2 9.7 0.00 1.93 1.93 59 1008.3
20260508231032 25 180 4.8 9.7 0.00 1.93 1.93 59 1008.2
20260508230528 25 171 3.2 9.7 0.00 1.93 1.93 58 1008.2
20260508230038 25 185 0.0 9.7 0.00 1.93 1.93 58 1008.2
20260508225529 25 189 3.2 14.5 0.00 1.93 1.93 59 1008.3
20260508225029 25 185 4.8 14.5 0.00 1.93 1.93 59 1008.3
20260508224536 25 185 1.6 8.0 0.00 1.93 1.93 59 1008.4
20260508224029 25 180 1.6 9.7 0.00 1.93 1.93 58 1008.5
20260508223529 25 180 1.6 9.7 0.00 1.93 1.93 59 1008.5
20260508223027 25 180 1.6 9.7 0.00 1.93 1.93 58 1008.5
20260508222529 25 175 3.2 9.7 0.00 1.93 1.93 58 1008.4
20260508222026 25 175 1.6 8.0 0.00 1.93 1.93 58 1008.3
20260508221539 25 164 0.0 8.0 0.00 1.93 1.93 58 1008.2
20260508221027 25 169 0.0 8.0 0.00 1.93 1.93 57 1008.3
20260508220526 25 180 1.6 6.4 0.00 1.93 1.93 58 1008.3
20260508220029 25 191 0.0 9.7 0.00 1.93 1.93 58 1008.4
20260508215526 25 191 1.6 9.7 0.00 1.93 1.93 57 1008.4
20260508215026 25 153 0.0 8.0 0.00 1.93 1.93 57 1008.3
20260508214526 25 151 1.6 14.5 0.00 1.93 1.93 57 1008.3
20260508214025 25 200 1.6 14.5 0.00 1.93 1.93 57 1008.1
20260508213525 25 202 3.2 14.5 0.00 1.93 1.93 58 1008.2
20260508213026 25 206 1.6 8.0 0.00 1.93 1.93 57 1008.2
20260508212624 25 206 1.6 14.5 0.00 1.93 1.93 56 1008.4
20260508212023 26 207 3.2 14.5 0.00 1.93 1.93 56 1008.2
20260508211522 26 185 1.6 14.5 0.00 1.93 1.93 57 1008.6
20260508211020 26 189 3.2 14.5 0.00 1.93 1.93 56 1009.1
20260508210520 26 205 3.2 16.1 0.00 1.93 1.93 56 1009.2
20260508210020 26 185 1.6 12.9 0.00 1.93 1.93 56 1009.3
20260508205518 26 199 3.2 12.9 0.00 1.93 1.93 56 1009.4
20260508205021 25 195 4.8 16.1 0.00 1.93 1.93 57 1009.6
20260508204517 26 197 8.0 16.1 0.00 1.93 1.93 56 1009.9
20260508204018 26 201 6.4 16.1 0.00 1.93 1.93 55 1010.1
20260508203517 26 191 4.8 14.5 0.00 1.93 1.93 56 1010.1
20260508203014 26 185 1.6 16.1 0.00 1.93 1.93 55 1010.2
20260508202515 26 207 6.4 16.1 0.00 1.93 1.93 55 1010.3
20260508202014 26 201 1.6 6.4 0.00 1.93 1.93 55 1010.2
20260508201515 26 202 0.0 12.9 0.00 1.93 1.93 55 1010.2
20260508201013 26 201 4.8 12.9 0.00 1.93 1.93 54 1010.4
20260508200512 26 204 3.2 12.9 0.00 1.93 1.93 55 1010.4
20260508200014 26 171 3.2 12.9 0.00 1.93 1.93 54 1010.4
20260508195512 26 175 1.6 9.7 0.00 1.93 1.93 53 1010.4
20260508195012 26 180 1.6 9.7 0.00 1.93 1.93 53 1010.6
20260508194511 26 180 1.6 9.7 0.00 1.93 1.93 55 1010.6
20260508194010 26 191 1.6 9.7 0.00 1.93 1.93 54 1010.6
20260508193511 26 185 1.6 8.0 0.00 1.93 1.93 55 1010.5
20260508193009 26 189 1.6 9.7 0.00 1.93 1.93 53 1010.6
20260508192508 26 191 1.6 11.3 0.00 1.93 1.93 54 1010.7
20260508192007 26 192 1.6 14.5 0.00 1.93 1.93 54 1010.8
20260508191508 26 206 1.6 9.7 0.00 1.93 1.93 52 1010.8
20260508191005 26 211 3.2 16.1 0.00 1.93 1.93 56 1010.8
20260508190504 26 175 0.0 9.7 0.00 1.93 1.93 54 1011.0
20260508190004 26 170 0.0 9.7 0.00 1.93 1.93 55 1011.1
20260508185506 25 141 1.6 8.0 0.00 1.93 1.93 57 1010.9
20260508185002 25 135 1.6 6.4 0.00 1.93 1.93 54 1011.0
20260508184502 25 143 0.0 12.9 0.00 1.93 1.93 54 1011.0
20260508184104 25 143 1.6 12.9 0.00 1.93 1.93 57 1011.1
20260508183559 25 175 1.6 8.0 0.00 1.93 1.93 55 1011.1
20260508183057 25 175 0.0 9.7 0.00 1.93 1.93 57 1011.3
20260508182556 25 175 0.0 9.7 0.00 1.93 1.93 55 1011.4
20260508182055 25 175 0.0 8.0 0.00 1.93 1.93 57 1011.5
20260508181554 25 175 0.0 9.7 0.00 1.93 1.93 56 1011.6
20260508181053 24 170 0.0 6.4 0.00 1.93 1.93 57 1011.6
20260508180552 24 180 1.6 6.4 0.00 1.93 1.93 56 1011.8
20260508180051 24 175 0.0 8.0 0.00 1.93 1.93 57 1012.0
20260508175550 24 175 1.6 8.0 0.00 1.93 1.93 56 1012.0
20260508175050 24 180 0.0 8.0 0.00 1.93 1.93 59 1012.0
20260508174549 23 180 0.0 8.0 0.00 1.93 1.93 57 1012.2
20260508174046 23 180 0.0 4.8 0.00 1.93 1.93 60 1012.2
20260508173545 23 180 1.6 4.8 0.00 1.93 1.93 59 1012.3
20260508173044 23 180 0.0 8.0 0.00 1.93 1.93 58 1012.4
20260508172541 22 180 3.2 8.0 0.00 1.93 1.93 60 1012.6
20260508172039 22 165 0.0 8.0 0.00 1.93 1.93 60 1012.7
20260508171539 22 164 1.6 14.5 0.00 1.93 1.93 61 1012.7
20260508171037 22 180 1.6 17.7 0.00 1.93 1.93 59 1012.9
20260508170538 22 180 3.2 17.7 0.00 1.93 1.93 60 1013.0
20260508170034 21 197 0.0 9.7 0.00 1.93 1.93 61 1013.1
20260508165533 21 191 3.2 8.0 0.00 1.93 1.93 60 1013.3
20260508165032 21 185 0.0 12.9 0.00 1.93 1.93 62 1013.3
20260508164536 21 185 0.0 12.9 0.00 1.93 1.93 62 1013.4
20260508164032 20 171 0.0 9.7 0.00 1.93 1.93 62 1013.4
20260508163528 20 195 0.0 12.9 0.00 1.93 1.93 64 1013.5
20260508163026 20 202 0.0 12.9 0.00 1.93 1.93 64 1013.5
20260508162524 19 200 0.0 14.5 0.00 1.93 1.93 66 1013.5
20260508162023 19 202 1.6 14.5 0.00 1.93 1.93 65 1013.9
20260508161522 18 200 0.0 14.5 0.00 1.93 1.93 66 1013.9
20260508161020 18 224 1.6 6.4 0.00 1.93 1.93 67 1014.0
20260508160519 18 226 0.0 6.4 0.00 1.93 1.93 68 1014.1
20260508160023 18 226 0.0 8.0 0.00 1.93 1.93 68 1014.0
20260508155519 17 226 0.0 8.0 0.00 1.93 1.93 69 1014.0
20260508155015 17 228 0.0 6.4 0.00 1.93 1.93 70 1014.2
20260508154513 17 228 0.0 11.3 0.00 1.93 1.93 70 1014.2
20260508154014 17 229 0.0 11.3 0.00 1.93 1.93 70 1014.4
20260508153516 17 239 0.0 4.8 0.00 1.93 1.93 73 1014.4
20260508153012 17 239 0.0 9.7 0.00 1.93 1.93 73 1014.2
20260508152512 17 239 0.0 9.7 0.00 1.93 1.93 76 1014.3
20260508152011 17 266 0.0 3.2 0.00 1.93 1.93 79 1014.2
20260508151511 17 266 0.0 6.4 0.00 1.93 1.93 78 1014.2
20260508151010 16 266 0.0 6.4 0.00 1.93 1.93 78 1014.3
20260508150509 16 284 0.0 1.6 0.00 1.93 1.93 79 1014.4
20260508150008 16 284 0.0 3.2 0.00 1.93 1.93 79 1014.4
20260508145512 16 284 0.0 3.2 0.00 1.93 1.93 79 1014.3
20260508145008 16 284 0.0 3.2 0.00 1.93 1.93 78 1014.4
20260508144507 16 284 0.0 3.2 0.00 1.93 1.93 79 1014.6
20260508144008 16 284 0.0 6.4 0.00 1.93 1.93 79 1014.6
20260508143508 16 284 0.0 6.4 0.00 1.93 1.93 79 1014.6
20260508143006 16 284 0.0 3.2 0.00 1.93 1.93 79 1014.5
20260508142507 16 284 0.0 3.2 0.00 1.93 1.93 80 1014.4
20260508142006 16 284 0.0 3.2 0.00 1.93 1.93 79 1014.6
20260508141505 16 284 0.0 3.2 0.00 1.93 1.93 79 1014.5
20260508141009 16 284 0.0 3.2 0.00 1.93 1.93 79 1014.7
20260508140505 16 284 0.0 4.8 0.00 1.93 1.93 79 1014.8
20260508140004 16 284 0.0 3.2 0.00 1.93 1.93 79 1014.7
20260508135504 16 284 0.0 3.2 0.00 1.93 1.93 79 1014.6
20260508135004 15 284 0.0 3.2 0.00 1.93 1.93 79 1014.7
20260508134505 15 284 0.0 4.8 0.00 1.93 1.93 79 1014.7
20260508134003 15 284 0.0 4.8 0.00 1.93 1.93 79 1014.7
20260508133506 15 284 0.0 1.6 0.00 1.93 1.93 79 1014.9
20260508133002 15 284 0.0 6.4 0.00 1.93 1.93 79 1014.9
20260508132503 15 284 1.6 6.4 0.00 1.93 1.93 79 1014.7
20260508132002 15 285 0.0 4.8 0.00 1.93 1.93 79 1014.6
20260508131502 15 286 0.0 6.4 0.00 1.93 1.93 79 1014.4
20260508131002 15 286 0.0 4.8 0.00 1.93 1.93 79 1014.4
20260508130600 15 287 0.0 9.7 0.00 1.93 1.93 79 1014.2
20260508130112 15 287 0.0 9.7 0.00 1.93 1.93 79 1014.7
20260508125600 15 291 0.0 1.6 0.00 1.93 1.93 79 1014.8
20260508125059 15 291 0.0 3.2 0.03 1.93 1.93 79 1014.7
20260508124558 15 291 0.0 3.2 0.03 1.93 1.93 78 1014.9
20260508124057 15 291 0.0 3.2 0.03 1.93 1.93 78 1015.5
20260508123558 15 291 0.0 3.2 0.03 1.93 1.93 78 1015.3
20260508123105 15 291 0.0 1.6 0.10 1.93 1.93 77 1015.0
20260508122555 15 291 0.0 3.2 0.41 1.93 1.93 77 1014.9
20260508122057 15 291 0.0 3.2 0.43 1.93 1.93 77 1015.0
20260508121603 15 291 0.0 3.2 0.43 1.93 1.93 77 1014.9
20260508121055 15 291 0.0 9.7 0.43 1.93 1.93 77 1014.9
20260508120554 15 314 0.0 8.0 0.46 1.93 1.93 77 1014.8
20260508120057 15 324 0.0 3.2 0.51 1.93 1.93 77 1014.6
20260508115554 15 324 0.0 3.2 0.58 1.93 1.93 76 1014.9
20260508115052 15 324 0.0 3.2 0.66 1.91 1.91 75 1014.9
20260508114553 15 217 0.0 1.6 0.84 1.91 1.91 74 1014.8
20260508114052 15 217 0.0 3.2 1.19 1.91 1.91 74 1014.6
20260508113552 15 217 0.0 3.2 1.35 1.91 1.91 73 1014.6
20260508113051 15 217 0.0 4.8 1.27 1.80 1.80 72 1014.5
20260508112551 15 217 0.0 4.8 1.02 1.50 1.50 70 1014.8
20260508112049 15 217 0.0 3.2 1.50 1.50 1.50 69 1014.2
20260508111549 15 217 0.0 3.2 1.50 1.50 1.50 69 1014.3
20260508111052 15 217 0.0 3.2 1.50 1.50 1.50 68 1014.3
20260508110547 15 217 0.0 3.2 1.42 1.42 1.42 67 1014.7
20260508110049 15 217 0.0 1.6 1.42 1.42 1.42 66 1014.7
20260508105548 15 217 0.0 3.2 1.35 1.35 1.35 65 1014.8
20260508105050 15 217 1.6 8.0 1.22 1.22 1.22 65 1015.0
20260508104615 16 217 1.6 8.0 1.07 1.07 1.07 65 1015.2
20260508104046 16 218 0.0 3.2 0.71 0.71 0.71 65 1015.1
20260508103546 16 218 0.0 3.2 0.56 0.56 0.56 64 1014.9
20260508103047 16 218 0.0 3.2 0.53 0.53 0.53 64 1014.7
20260508102547 16 218 0.0 9.7 0.46 0.46 0.46 63 1014.5
20260508102047 16 218 3.2 9.7 0.00 0.00 0.00 63 1015.5
20260508101549 16 185 0.0 4.8 0.00 0.00 0.00 62 1014.4
20260508101045 16 185 0.0 3.2 0.00 0.00 0.00 62 1013.7
20260508100544 16 185 0.0 8.0 0.00 0.00 0.00 63 1013.8
20260508100045 16 185 0.0 8.0 0.00 0.00 0.00 63 1013.7
20260508095544 16 185 0.0 8.0 0.00 0.00 0.00 64 1013.7
20260508095044 16 185 0.0 6.4 0.00 0.00 0.00 64 1013.8
20260508094547 16 185 0.0 4.8 0.00 0.00 0.00 64 1013.8
20260508094043 16 185 0.0 4.8 0.00 0.00 0.00 64 1013.7
20260508093543 16 185 0.0 6.4 0.00 0.00 0.00 64 1013.9
20260508093043 16 185 1.6 6.4 0.00 0.00 0.00 64 1014.0
20260508092546 16 185 0.0 0.0 0.00 0.00 0.00 64 1014.0
20260508092041 16 185 0.0 3.2 0.00 0.00 0.00 64 1014.0
20260508091541 16 185 0.0 4.8 0.00 0.00 0.00 64 1014.3
20260508091043 16 185 0.0 4.8 0.00 0.00 0.00 64 1014.1
20260508090541 16 185 0.0 4.8 0.00 0.00 0.00 64 1014.0
20260508090047 16 185 0.0 3.2 0.00 0.00 0.00 64 1014.3
20260508085540 16 185 0.0 3.2 0.00 0.00 0.00 64 1014.8
20260508085040 16 185 0.0 1.6 0.00 0.00 0.00 64 1014.4
20260508084538 16 185 0.0 3.2 0.00 0.00 0.00 63 1014.5
20260508084038 16 185 0.0 3.2 0.00 0.00 0.00 63 1014.6
20260508083540 16 185 1.6 4.8 0.00 0.00 0.00 63 1014.7
20260508083051 16 185 0.0 4.8 0.00 0.00 0.00 62 1014.3
20260508082539 16 185 0.0 6.4 0.00 0.00 0.00 62 1014.4
20260508082036 16 185 3.2 6.4 0.00 0.00 0.00 62 1014.7
20260508081544 16 185 0.0 4.8 0.00 0.00 0.00 62 1014.4
20260508081034 16 185 0.0 6.4 0.00 0.00 0.00 61 1014.8
20260508080533 16 185 0.0 6.4 0.00 0.00 0.00 62 1014.8
20260508080041 16 185 1.6 4.8 0.00 0.00 0.00 62 1015.4
20260508075533 15 185 0.0 4.8 0.00 0.00 0.00 63 1015.6
20260508075033 15 185 0.0 6.4 0.00 0.00 0.00 63 1015.7
20260508074533 15 185 0.0 3.2 0.00 0.00 0.00 63 1015.7
20260508074032 15 185 0.0 1.6 0.00 0.00 0.00 64 1015.6
20260508073532 15 185 0.0 1.6 0.00 0.00 0.00 63 1015.3
20260508073031 15 185 0.0 1.6 0.00 0.00 0.00 64 1015.4
20260508072530 15 185 0.0 0.0 0.00 0.00 0.00 64 1015.2
20260508072030 15 185 0.0 0.0 0.00 0.00 0.00 64 1015.1
20260508071529 15 185 0.0 0.0 0.00 0.00 0.00 64 1015.2
20260508071029 15 185 0.0 0.0 0.00 0.00 0.00 64 1015.3
20260508070532 15 185 0.0 0.0 0.00 0.00 0.00 64 1015.4
20260508070045 15 185 0.0 1.6 0.00 0.00 0.00 64 1015.4
20260508065528 15 185 0.0 1.6 0.00 0.00 0.00 64 1015.4
20260508065026 15 185 0.0 1.6 0.00 0.00 0.00 64 1015.6
20260508064532 15 185 0.0 1.6 0.00 0.00 0.00 64 1015.7
20260508064026 15 185 0.0 0.0 0.00 0.00 0.00 64 1016.1
20260508063528 15 185 0.0 0.0 0.00 0.00 0.00 64 1016.2
20260508063026 15 185 0.0 0.0 0.00 0.00 0.00 64 1016.2
20260508062526 15 185 0.0 0.0 0.00 0.00 0.00 64 1016.0
20260508062025 15 185 0.0 0.0 0.00 0.00 0.00 64 1016.1
20260508061524 15 185 0.0 0.0 0.00 0.00 0.00 64 1015.8
20260508061024 15 185 0.0 0.0 0.00 0.00 0.00 64 1015.8
20260508060524 15 185 0.0 0.0 0.00 0.00 0.00 64 1015.8
20260508060022 15 185 0.0 0.0 0.00 0.00 0.00 64 1015.7
20260508055522 15 185 0.0 0.0 0.00 0.00 0.00 64 1015.9
20260508055021 16 185 0.0 0.0 0.00 0.00 0.00 64 1015.8
20260508054520 16 185 0.0 0.0 0.00 0.00 0.00 64 1015.7
20260508054019 16 185 0.0 0.0 0.00 0.00 0.00 63 1015.7
20260508053519 16 185 0.0 0.0 0.00 0.00 0.00 63 1015.8
20260508053018 16 185 0.0 0.0 0.00 0.00 0.00 63 1016.0
20260508052516 16 185 0.0 0.0 0.00 0.00 0.00 63 1016.1
20260508052017 16 185 0.0 0.0 0.00 0.00 0.00 63 1016.0
20260508051516 16 185 0.0 0.0 0.00 0.00 0.00 63 1016.0
20260508051015 16 185 0.0 0.0 0.00 0.00 0.00 63 1016.1
20260508050514 16 185 0.0 0.0 0.00 0.00 0.00 63 1016.0
20260508050015 16 185 0.0 0.0 0.00 0.00 0.00 63 1015.9
20260508045513 16 185 0.0 0.0 0.00 0.00 0.00 63 1015.9
20260508045013 16 185 0.0 0.0 0.00 0.00 0.00 63 1015.9
20260508044513 16 185 0.0 0.0 0.00 0.00 0.00 63 1015.9
20260508044013 16 185 0.0 0.0 0.00 0.00 0.00 62 1016.0